GFSCGP_700_rhum_003.txt.gz
RH
64 60 51 45 50 50 56 65 85 90 79 83 64 57 53 51 50 41 31 26 30 31 35 34 36 40 48 60 61 49 46 54 53 52 42 43 40 44 44 45 51 56 42 40
57 50 50 60 66 64 62 69 73 75 72 75 76 46 49 42 39 38 32 30 26 27 31 37 37 35 44 66 64 50 57 63 58 48 47 46 46 43 52 53 58 50 42 42
56 56 64 58 64 77 94 100 99 98 88 62 64 46 34 30 29 29 30 31 28 27 26 31 37 40 37 64 61 48 59 58 51 54 51 49 49 49 50 58 51 43 44 40
63 57 62 65 76 76 81 82 74 77 93 95 76 72 52 38 36 33 29 26 27 28 28 28 33 39 42 61 59 57 51 49 50 56 51 50 50 50 59 47 46 45 43 50
56 68 72 74 70 82 88 86 78 76 89 98 96 95 59 50 43 34 30 26 25 25 27 28 32 38 48 55 57 51 52 51 54 49 49 46 62 59 44 40 43 45 51 48
91 94 94 92 88 91 90 100 99 91 94 93 80 86 56 49 37 31 29 25 22 28 29 27 31 47 42 48 54 50 52 53 50 48 42 43 57 43 37 40 46 52 50 50
90 87 84 88 94 85 92 97 95 96 97 81 60 83 52 46 44 38 30 28 33 35 42 35 38 44 50 48 52 50 52 53 47 48 48 55 40 41 42 47 53 51 50 50
94 81 66 63 57 75 83 87 94 88 83 72 65 81 57 47 39 26 22 25 31 44 65 59 40 57 62 59 52 50 53 53 48 50 48 42 38 41 44 52 53 52 50 51
83 94 85 74 73 78 99 98 69 96 96 96 68 54 42 38 28 30 44 50 38 26 44 56 51 52 64 63 54 58 58 53 48 50 36 35 40 42 49 53 53 51 53 58
93 98 82 93 87 86 86 99 98 98 95 90 64 62 45 30 27 24 40 58 54 29 34 38 56 52 60 63 59 63 60 52 47 42 36 38 41 49 54 54 52 53 58 63
99 97 91 92 91 73 94 99 97 96 97 87 69 46 37 40 42 56 49 55 57 42 26 31 46 54 54 59 61 64 62 52 45 39 39 40 46 52 53 51 52 58 64 69
82 96 95 83 78 78 79 84 89 95 90 92 82 64 48 40 46 60 56 61 62 54 24 30 41 50 50 58 62 66 62 51 43 42 40 46 52 52 51 53 58 64 70 75
84 96 97 88 90 97 98 85 95 94 96 91 84 62 41 44 47 46 56 63 69 52 32 26 34 48 59 64 65 66 58 50 44 41 43 51 53 53 54 59 66 71 76 80
97 97 88 80 85 98 97 90 94 98 96 83 83 75 52 44 37 43 56 68 80 50 36 21 32 53 58 65 64 60 56 50 44 42 48 54 57 57 60 65 71 76 81 84
100 98 91 84 94 98 97 96 95 98 80 93 66 73 59 57 47 37 48 99 80 58 38 30 42 47 51 60 63 60 56 50 44 45 52 57 60 62 65 71 76 80 83 83
100 98 100 99 93 98 98 99 98 96 93 97 90 75 55 65 66 63 99 94 74 64 57 55 56 58 63 66 62 58 54 48 47 51 57 60 62 64 69 74 77 78 81 83
98 99 99 95 95 98 97 95 99 100 99 85 90 36 63 73 93 99 94 94 74 63 62 62 64 66 65 64 62 60 56 53 54 56 59 61 65 68 71 75 77 83 81 75
100 100 99 96 96 98 98 100 99 100 90 79 60 34 61 94 98 90 90 68 65 66 67 66 68 70 72 72 70 65 60 60 62 63 66 70 71 73 74 81 79 78 60 43
82 99 98 98 98 90 80 100 100 75 60 63 40 63 83 87 92 98 72 62 58 62 66 70 76 77 73 74 78 73 67 68 69 72 73 74 75 81 80 76 70 48 29 20
81 99 100 99 99 94 73 85 79 79 70 74 48 44 61 80 84 74 64 63 62 63 69 74 76 77 77 77 80 81 78 77 76 78 84 85 80 75 72 55 38 22 23 25
100 97 97 99 96 80 70 72 81 67 63 70 51 58 71 76 72 62 56 56 58 62 68 77 83 84 83 84 85 88 91 90 87 82 76 74 71 60 45 26 22 27 26 22
79 89 82 97 98 75 69 69 67 60 55 65 55 59 81 82 81 78 68 62 55 54 59 67 80 85 87 88 91 89 84 78 76 74 70 63 50 29 23 27 28 24 20 16
79 75 79 78 66 69 69 64 60 56 58 61 69 62 59 55 60 67 63 59 55 59 64 74 84 85 85 85 84 82 79 75 69 65 51 29 24 28 29 25 21 17 16 12
76 81 79 81 73 66 70 70 57 58 58 62 70 69 62 56 58 66 67 65 60 63 66 70 77 84 84 82 79 73 69 67 50 29 25 30 29 25 22 18 17 15 12 12
84 80 78 76 79 74 66 68 58 57 56 63 65 70 67 66 67 68 68 64 61 60 66 75 79 77 74 73 74 70 49 32 26 30 29 25 22 19 17 16 13 12 13 13
66 64 72 79 78 81 73 69 60 60 61 58 65 66 68 68 61 56 56 59 61 65 68 70 73 75 77 69 51 33 28 31 29 25 22 19 17 17 14 13 13 14 15 18

GFSCGP_700_rhum_006.txt.gz
RH
65 71 54 48 50 65 51 60 73 74 60 48 37 33 52 42 35 44 35 35 31 27 26 25 32 39 46 48 49 54 49 47 46 47 51 57 55 49 41 40 46 46 44 45
70 63 58 57 56 55 57 76 74 76 80 72 71 29 38 30 21 22 28 27 30 30 28 26 29 31 37 44 49 52 54 46 43 53 64 63 64 52 46 40 45 50 58 56
66 62 48 56 59 62 73 90 84 82 82 86 80 45 34 40 31 23 23 25 25 27 30 28 28 31 31 35 38 46 60 47 48 59 68 70 60 55 49 44 44 79 96 54
59 73 63 76 81 71 88 89 92 96 94 76 83 56 44 45 40 30 24 26 26 24 24 28 28 28 33 34 33 39 62 55 50 59 66 63 60 55 60 53 62 85 60 56
68 63 64 65 54 74 94 86 95 96 92 91 75 96 50 48 51 37 30 29 29 27 25 25 29 28 30 40 37 37 60 56 51 62 56 61 63 55 57 56 62 58 59 47
89 80 77 86 80 85 89 99 100 100 98 90 60 63 51 39 41 41 30 28 30 27 23 23 26 28 30 36 39 43 60 59 55 52 56 60 57 57 50 52 55 49 48 51
100 90 77 86 97 94 99 100 75 84 92 63 43 51 53 44 50 38 30 25 31 38 33 29 37 32 29 30 36 47 58 57 52 52 54 53 53 57 92 59 49 47 51 52
99 79 76 48 53 92 92 94 67 58 43 40 47 57 41 43 50 36 32 25 24 28 36 38 62 57 32 35 39 50 55 53 52 53 51 51 51 77 64 49 47 51 53 54
98 86 55 59 74 86 100 99 83 88 87 93 56 59 51 45 47 43 36 40 61 54 29 49 67 60 36 49 50 49 52 50 52 53 48 52 60 97 50 44 45 51 54 56
100 95 70 84 80 77 93 99 93 98 82 69 45 54 42 38 39 39 42 55 57 59 49 36 56 58 46 55 63 58 57 51 52 53 51 54 98 63 45 45 50 55 58 58
98 94 97 91 78 79 92 100 99 95 91 67 54 34 36 45 47 52 58 57 53 55 53 32 47 56 53 65 66 66 57 53 58 52 51 80 83 43 44 50 55 56 57 61
92 100 97 95 85 86 88 94 97 97 91 97 72 57 43 48 43 47 53 54 55 63 58 36 39 54 55 56 66 64 62 63 60 52 66 58 96 43 49 55 58 59 60 64
92 98 94 75 85 81 100 73 97 98 98 93 82 53 47 47 44 58 52 39 59 59 61 39 34 51 58 52 64 61 65 66 60 51 50 57 42 48 55 58 59 61 65 70
97 100 86 70 65 84 98 96 98 97 97 75 81 67 63 64 64 65 66 48 56 56 66 39 30 44 50 58 57 59 68 67 60 55 50 45 46 55 58 60 61 65 72 77
100 100 93 74 90 99 99 100 99 98 86 94 62 66 64 67 71 76 54 49 56 59 64 42 23 38 42 59 62 69 74 70 67 53 50 46 52 57 59 62 64 70 77 83
99 94 90 96 100 100 99 96 100 100 100 100 95 88 60 83 74 83 71 100 95 77 65 44 26 38 57 69 71 71 73 74 71 58 49 47 54 61 63 65 70 76 82 89
94 92 96 93 98 98 98 99 100 92 99 100 99 45 88 90 74 98 98 100 96 80 58 34 25 51 65 75 78 76 80 84 83 59 52 56 62 63 67 71 75 80 88 93
82 95 99 97 92 94 98 98 99 95 87 100 93 52 83 92 97 98 100 90 86 79 68 59 59 64 69 77 87 91 84 71 64 56 57 61 65 68 73 77 82 92 93 82
89 99 98 98 98 84 91 97 96 95 85 84 72 93 98 98 100 100 87 88 80 76 74 77 80 78 78 76 74 75 65 60 60 62 64 67 72 77 80 86 95 89 70 43
99 100 99 99 97 79 82 83 93 98 88 77 74 67 94 99 96 89 79 76 76 77 79 77 74 73 75 74 73 70 70 69 68 70 74 77 80 88 95 89 77 51 36 24
98 100 98 99 98 81 75 73 73 73 78 71 60 74 82 88 90 87 81 84 75 70 76 80 81 82 83 85 85 82 78 76 77 78 86 95 94 87 78 62 45 24 27 28
84 96 96 97 94 81 69 65 69 62 62 71 78 86 88 92 82 74 80 79 83 78 78 78 80 80 79 84 86 87 89 95 99 97 91 86 77 61 47 27 27 29 24 20
87 77 87 79 74 61 62 65 56 60 61 72 79 90 91 89 94 92 85 71 73 80 80 86 89 88 90 95 100 100 100 97 92 84 73 58 46 27 28 29 25 21 17 15
80 80 82 82 77 78 62 63 56 58 64 65 71 74 67 60 68 66 64 65 67 74 81 86 91 96 98 99 100 96 93 82 69 58 44 27 28 30 26 22 18 17 14 14
90 88 78 70 80 77 64 62 58 58 64 71 70 69 58 61 67 68 76 66 67 73 87 93 100 100 99 94 86 75 67 60 43 29 29 30 26 22 19 17 16 14 14 13
68 71 68 81 76 84 75 65 61 62 58 61 67 68 69 76 70 65 67 64 72 79 83 85 91 89 76 73 70 60 44 30 30 30 26 22 19 18 17 16 15 14 14 13

GFSCGP_700_rhum_009.txt.gz
RH
68 78 71 83 84 79 68 63 54 50 54 62 61 57 52 50 47 40 40 30 26 28 32 52 27 33 63 64 44 49 49 45 50 49 46 44 45 53 63 61 58 47 43 43
84 63 83 88 84 84 79 71 62 58 60 63 64 37 46 23 14 18 24 20 17 18 21 31 35 24 28 36 40 42 51 49 50 47 44 46 48 61 61 61 57 49 46 47
98 85 60 79 77 68 73 73 68 65 66 70 67 49 26 40 35 27 19 18 17 17 19 24 27 31 23 30 34 49 52 55 50 44 42 47 58 64 60 60 59 52 49 49
97 90 74 61 56 74 75 69 71 78 79 64 71 51 40 32 34 31 36 18 18 21 25 24 24 32 33 26 33 38 42 52 52 42 38 45 54 62 65 66 66 62 57 84
91 62 83 72 67 89 83 90 87 85 83 84 63 65 46 32 30 25 30 43 29 32 37 30 26 24 27 37 38 31 41 41 46 50 45 51 64 68 66 63 61 59 59 99
86 97 73 87 82 83 96 95 96 92 95 84 57 49 38 30 23 28 30 37 39 40 41 35 22 24 25 31 48 31 43 39 43 56 56 58 66 65 60 61 59 60 65 99
100 90 93 75 91 100 99 98 70 80 92 64 34 37 36 28 31 30 35 32 42 40 42 51 50 24 24 27 39 34 35 44 42 51 60 63 64 57 60 66 68 53 81 73
97 87 99 85 91 88 100 94 61 53 40 34 36 37 34 35 33 37 40 41 34 44 40 63 64 40 34 33 35 32 33 44 47 56 64 59 54 58 63 66 74 98 59 60
92 90 82 79 64 87 94 92 72 81 70 67 48 42 40 37 38 39 41 45 44 41 65 78 77 39 42 56 43 35 35 41 48 61 63 56 54 60 60 62 78 66 51 52
93 86 84 95 72 88 94 90 91 96 79 56 35 34 34 35 36 34 36 40 41 48 67 78 64 42 53 64 49 36 40 47 55 62 60 54 58 59 62 63 66 51 50 55
99 87 98 85 72 76 97 100 98 87 88 74 66 44 37 38 41 46 59 55 68 73 65 46 47 55 52 56 50 40 54 53 57 60 55 55 58 61 71 92 55 49 52 58
97 96 95 81 83 88 87 96 96 97 72 93 77 66 50 46 47 47 52 49 62 59 70 54 56 60 35 51 52 56 62 59 57 61 56 57 64 60 99 91 49 50 57 61
98 93 90 83 83 84 90 86 86 97 98 96 91 60 46 56 46 46 50 52 57 74 92 52 59 64 36 44 55 61 69 68 67 59 57 60 59 88 99 69 49 53 59 63
99 96 85 66 58 75 96 96 98 98 98 81 79 71 64 61 68 67 67 63 70 81 98 56 60 64 37 41 59 65 68 70 64 60 60 62 90 98 81 54 53 58 64 64
98 94 92 93 96 96 90 96 96 99 96 99 73 72 68 71 75 80 76 72 88 96 96 53 61 57 36 40 58 61 64 69 71 66 63 97 99 97 76 62 61 62 64 66
97 98 99 98 77 87 100 94 99 100 98 99 95 92 85 84 83 72 76 85 97 100 77 80 74 44 32 44 59 58 71 75 76 86 93 91 99 76 63 62 63 64 67 73
99 98 99 89 85 92 93 100 99 97 93 98 100 69 96 91 92 92 82 98 99 98 98 82 62 32 33 42 63 68 76 96 96 99 100 93 66 62 63 80 93 73 75 78
96 98 100 88 86 92 85 86 91 91 93 100 100 88 93 98 95 99 100 99 99 92 84 71 41 31 50 71 84 78 88 99 100 100 98 93 72 70 90 90 78 79 80 87
98 100 97 98 91 74 94 90 85 98 93 98 98 92 88 96 99 98 100 96 98 93 85 64 52 64 85 97 99 99 100 98 99 100 98 85 89 86 82 80 82 84 93 97
100 100 99 100 97 82 76 76 76 89 87 95 89 88 95 100 99 100 100 100 94 84 77 70 82 100 99 98 96 100 100 100 98 96 86 82 80 79 83 86 94 98 95 65
100 100 100 100 98 85 76 72 77 78 76 92 93 98 94 89 95 100 100 99 99 100 100 100 99 99 99 99 97 91 80 71 76 82 77 78 83 88 99 99 93 73 54 29
89 94 100 99 97 84 67 66 78 70 69 78 86 92 82 86 93 98 99 98 94 92 94 97 90 87 85 84 82 80 81 81 81 83 84 94 100 98 88 76 56 30 29 25
92 83 79 84 76 74 77 69 71 64 68 69 82 87 85 89 94 94 97 96 98 98 91 91 88 84 85 89 92 91 88 88 94 100 98 93 86 71 54 30 30 27 20 17
80 76 78 83 82 74 77 63 62 63 67 74 72 74 78 77 89 82 85 93 90 93 94 87 88 91 87 89 93 94 99 98 93 90 80 63 50 30 30 28 21 18 17 16
99 88 83 72 71 77 80 64 61 60 75 78 78 80 64 66 77 90 82 77 87 88 88 93 93 95 99 99 97 96 94 85 71 63 47 31 30 27 22 18 18 17 17 16
81 73 80 80 81 74 78 71 64 60 67 69 67 66 73 80 87 75 73 72 78 88 94 96 98 99 99 97 90 77 69 62 46 30 30 27 22 19 19 18 18 17 15 15

GFSCGP_700_rhum_012.txt.gz
RH
87 96 82 80 77 71 76 76 62 55 49 52 54 53 50 31 33 17 29 38 30 21 23 30 43 30 24 37 64 71 69 69 54 48 47 51 53 53 55 54 54 59 63 62
85 67 68 84 81 79 80 80 68 61 56 59 53 42 30 20 16 17 17 20 15 16 15 16 29 54 31 30 55 69 74 62 57 52 51 53 52 50 47 44 52 54 62 60
91 82 62 70 86 72 68 79 72 66 65 61 53 44 31 34 29 23 21 18 16 11 12 17 18 25 38 32 36 60 70 69 54 56 55 54 53 50 46 44 56 60 64 62
97 98 89 65 77 70 78 68 69 69 74 70 67 74 30 20 21 31 26 14 14 20 16 10 16 18 36 38 35 49 53 60 58 53 48 53 53 49 47 49 58 67 70 67
93 93 95 76 60 74 77 81 74 73 83 86 62 73 24 26 20 26 23 26 30 32 32 28 27 27 35 40 59 42 56 73 54 39 52 58 54 49 50 62 71 74 71 64
93 93 67 62 70 75 88 90 79 80 88 94 52 52 16 26 25 28 26 22 27 35 39 40 42 41 33 31 44 51 60 69 52 50 43 52 56 46 54 62 73 71 68 64
87 89 72 65 80 82 96 91 86 96 99 88 36 50 37 29 31 31 32 31 32 42 40 40 44 55 49 37 28 47 66 67 56 46 47 43 49 45 62 66 73 72 68 70
84 88 78 79 77 83 89 89 74 76 82 68 56 57 41 32 33 33 33 34 35 38 38 41 39 39 46 48 49 35 62 66 60 47 49 52 48 57 63 68 73 73 76 82
91 89 90 85 76 90 93 96 55 85 72 82 57 42 36 32 32 32 34 35 39 40 44 44 42 43 33 47 59 58 60 59 54 44 50 59 53 58 66 67 71 74 75 81
90 90 82 88 74 79 93 80 92 90 97 80 47 41 38 38 37 37 35 38 39 40 42 43 50 57 49 43 47 67 74 59 53 40 49 59 52 61 63 67 72 70 96 88
95 90 92 94 85 60 83 96 91 94 94 94 80 49 40 42 43 42 44 46 46 50 45 46 45 36 37 52 55 53 61 65 62 41 47 55 56 66 64 69 68 95 86 94
96 91 97 77 70 73 90 89 84 95 75 82 74 73 50 44 52 50 50 48 51 46 55 58 60 46 53 50 54 49 65 69 50 40 47 60 71 70 63 62 86 91 95 60
93 95 98 90 86 85 86 77 82 94 91 94 95 68 51 49 51 66 56 53 52 52 59 74 50 48 60 60 57 48 89 84 100 46 59 70 74 66 61 79 100 98 81 58
93 93 78 77 74 77 92 83 85 97 98 89 88 80 77 79 74 86 89 90 76 76 71 76 43 54 62 57 62 92 99 98 58 66 71 77 71 66 65 96 89 100 82 68
99 95 84 79 70 74 75 75 81 99 92 100 88 99 73 88 98 77 79 84 83 82 76 69 58 69 74 96 88 96 98 67 72 79 78 75 69 92 100 96 100 99 73 79
91 96 90 88 76 80 90 78 88 98 99 99 87 84 100 93 82 83 90 81 76 76 77 89 71 96 98 99 67 54 87 94 86 81 75 68 94 91 98 100 100 89 93 69
89 93 87 90 71 80 90 85 93 95 98 96 99 98 100 98 93 98 95 96 86 79 92 99 77 98 100 98 69 79 99 94 85 76 72 100 97 100 100 100 100 98 68 75
94 87 92 94 79 92 78 76 91 90 90 98 100 100 99 96 93 96 98 98 90 95 92 98 91 97 92 59 65 88 94 87 87 89 100 100 100 100 99 96 72 69 88 96
99 97 95 96 95 70 86 85 77 84 87 91 100 96 92 97 99 99 99 98 98 99 100 95 84 72 60 53 81 98 100 100 100 100 100 100 100 91 93 92 96 97 85 87
99 97 99 99 95 83 77 72 70 79 90 81 99 99 99 99 97 99 99 99 99 100 89 86 93 98 100 100 100 94 100 100 100 100 99 99 95 90 97 94 84 82 88 98
100 99 98 99 96 81 64 78 74 79 73 76 99 93 95 97 96 98 99 98 90 94 100 100 100 100 100 100 100 99 98 99 98 95 97 94 90 88 84 86 96 99 92 74
83 97 98 99 96 92 79 78 82 72 75 72 92 87 85 95 97 98 95 99 99 99 100 100 98 99 100 100 99 94 82 78 78 82 89 89 86 93 98 98 86 72 47 30
90 81 89 83 76 79 82 77 72 68 69 69 86 88 86 89 96 100 98 99 99 97 95 88 92 93 91 91 90 86 83 84 86 89 97 100 100 92 80 62 43 30 28 20
95 88 86 82 84 82 73 83 64 63 71 67 86 82 86 86 87 88 94 98 99 98 96 95 98 100 96 94 93 92 97 99 100 100 95 86 70 59 39 30 28 20 19 20
93 99 90 75 76 85 82 76 67 62 72 77 77 85 85 76 84 93 86 95 92 97 100 99 99 100 100 100 100 100 100 98 90 79 68 56 36 30 27 20 19 21 20 19
72 78 85 80 87 75 69 69 72 64 65 72 76 69 71 76 84 85 78 77 92 98 100 99 100 99 100 99 98 92 80 73 67 54 33 30 26 20 20 22 21 20 19 19

GFSCGP_700_rhum_018.txt.gz
RH
98 97 98 86 83 71 81 82 86 72 69 70 73 74 62 30 37 40 32 29 26 22 20 24 25 25 25 30 40 55 71 70 61 55 63 55 52 49 55 49 48 53 58 56
100 99 96 99 99 97 100 92 79 73 68 69 60 56 46 37 29 23 19 20 17 17 16 16 21 28 33 25 23 22 30 63 71 63 68 82 66 55 60 60 60 60 60 59
90 91 93 94 92 90 87 88 85 79 67 62 57 52 33 19 14 12 9 14 16 14 13 12 15 17 19 23 31 33 32 68 75 73 72 72 76 74 58 62 61 60 57 56
99 88 76 83 90 91 89 85 82 79 62 59 47 66 20 15 13 12 12 13 15 13 13 13 15 16 18 22 34 34 40 40 68 73 74 73 73 70 66 60 58 64 64 61
95 91 84 88 90 92 89 82 68 61 68 72 54 65 21 18 13 16 17 22 19 20 20 18 16 14 12 14 19 39 52 50 54 51 69 73 72 86 82 76 65 69 70 66
96 91 86 80 82 78 83 72 64 67 70 80 44 54 37 18 19 19 21 24 25 26 27 23 22 21 20 18 17 17 28 51 56 64 61 66 74 73 82 76 72 68 72 65
99 92 84 78 87 83 76 74 68 80 94 80 56 66 29 26 22 26 29 30 32 31 29 30 30 30 28 24 20 19 28 33 59 62 67 72 73 76 76 84 77 73 70 66
97 95 88 78 65 62 63 74 59 65 96 85 64 66 29 22 26 30 34 33 32 33 33 32 33 33 35 39 38 34 35 39 46 58 60 69 76 84 82 88 81 72 71 73
86 83 88 78 72 68 78 93 82 82 86 90 55 42 27 28 31 37 38 38 40 40 38 36 36 36 30 32 38 41 42 44 43 40 49 61 67 71 74 82 84 72 77 76
76 81 86 85 73 92 83 83 84 77 91 90 70 61 39 38 39 39 41 44 48 46 42 45 45 41 38 34 34 40 40 40 40 37 32 50 56 66 66 79 77 76 79 75
89 80 90 93 80 79 91 91 71 74 80 98 95 60 42 45 46 46 46 45 50 56 56 50 48 48 48 44 41 40 41 36 31 28 28 30 51 56 77 94 88 78 70 72
89 83 84 68 81 84 80 82 70 69 72 92 93 71 44 47 50 58 69 80 84 81 76 68 72 56 48 45 43 42 46 38 31 26 30 35 44 61 68 88 91 88 75 77
83 86 87 90 83 87 87 77 87 84 84 89 88 64 53 54 66 82 86 90 90 89 80 80 84 77 59 54 49 42 45 39 36 28 39 50 52 67 82 78 97 80 69 79
84 87 75 78 85 85 92 86 86 89 94 87 86 65 56 70 94 98 93 99 90 85 71 86 80 78 69 68 63 60 56 39 41 50 56 61 68 71 93 90 91 68 71 75
90 87 88 82 82 82 82 77 75 89 77 97 59 79 74 91 99 99 97 90 96 97 97 88 93 83 77 76 77 74 55 47 58 55 70 69 73 82 100 99 74 63 80 99
94 96 92 77 68 69 75 68 75 75 76 91 89 93 100 100 100 99 96 98 99 100 100 99 98 91 88 83 80 79 83 66 66 72 77 82 90 100 96 85 59 79 100 100
88 88 99 81 85 75 75 67 71 79 82 85 92 84 100 98 98 99 98 100 99 99 100 100 96 92 90 84 79 78 89 97 50 70 75 92 100 97 100 81 98 100 100 100
87 88 88 81 74 92 74 72 74 80 74 78 82 81 99 99 98 98 99 99 98 99 100 100 100 99 100 98 97 99 99 99 98 98 98 99 98 95 100 100 99 100 100 100
93 95 90 89 91 68 61 67 72 82 60 75 83 77 97 100 100 96 97 97 100 100 100 93 85 93 96 100 99 99 97 96 98 99 100 100 100 100 100 100 100 99 99 99
95 96 99 98 99 89 85 70 74 81 67 77 83 80 88 98 100 100 97 97 100 99 100 100 91 78 78 77 94 98 99 99 100 100 100 100 100 100 100 99 98 99 96 96
98 99 99 99 92 69 59 65 86 80 76 84 75 76 90 99 100 99 98 99 97 100 98 99 100 100 98 100 99 100 94 88 98 98 98 99 98 98 99 98 98 91 89 96
94 97 97 100 98 83 80 84 87 87 83 78 73 75 86 93 100 98 99 99 98 99 96 95 98 99 98 98 99 98 99 98 100 97 93 93 92 90 88 92 95 97 98 92
98 87 85 79 67 71 81 84 85 88 79 74 72 76 85 92 99 97 99 99 98 98 93 88 90 84 80 85 96 87 84 91 95 97 99 100 100 96 90 86 68 48 34 29
94 99 96 97 72 89 88 82 88 88 73 71 75 80 85 90 99 99 97 94 96 96 83 84 89 86 81 83 92 99 99 99 100 98 94 82 65 53 39 31 29 24 21 21
84 96 94 88 74 79 78 92 86 74 74 69 77 78 79 82 86 96 99 94 98 96 98 95 93 83 94 99 98 96 92 89 80 65 49 35 30 28 24 21 22 22 21 22
76 88 89 80 89 99 89 88 80 72 80 70 70 75 75 77 82 89 98 97 97 99 93 94 98 100 87 97 92 86 71 58 37 30 29 24 22 22 23 23 23 23 23 23